This is the latest recevied weather packets stored in our database for station/object LU3HGB-WX. If no packets are shown the sender has not sent any weather packets the latest 10 day(s).
| Time | Temp. | Humidity | Pressure | Rain* | Wind** | Luminosity | Snow |
|---|---|---|---|---|---|---|---|
| 1788320560 | 6.11° C | 79% | 1019 hPa | 0 mm | - | 0 W/m² | - |
| 1788320260 | 6.11° C | 79% | 1019 hPa | 0 mm | - | 0 W/m² | - |
| 1788319959 | 6.67° C | 77% | 1019 hPa | 0 mm | - | 0 W/m² | - |
| 1788319660 | 6.67° C | 78% | 1019 hPa | 0 mm | - | 0 W/m² | - |
| 1788319360 | 6.67° C | 77% | 1019 hPa | 0 mm | - | 0 W/m² | - |
| 1788319059 | 6.67° C | 76% | 1019 hPa | 0 mm | - | 0 W/m² | - |
| 1788318759 | 6.67° C | 75% | 1019 hPa | 0 mm | - | 0 W/m² | - |
| 1788318460 | 7.22° C | 74% | 1019 hPa | 0 mm | - | 0 W/m² | - |
| 1788318160 | 7.22° C | 73% | 1019 hPa | 0 mm | - | 0 W/m² | - |
| 1788317859 | 7.22° C | 73% | 1019 hPa | 0 mm | - | 0 W/m² | - |
| 1788317559 | 7.22° C | 72% | 1019 hPa | 0 mm | - | 0 W/m² | - |
| 1788317260 | 7.22° C | 73% | 1019 hPa | 0 mm | - | 0 W/m² | - |
| 1788316960 | 7.78° C | 72% | 1019 hPa | 0 mm | - | 0 W/m² | - |
| 1788316660 | 7.78° C | 72% | 1019 hPa | 0 mm | - | 0 W/m² | - |
| 1788316360 | 8.33° C | 69% | 1019 hPa | 0 mm | - | 0 W/m² | - |
| 1788316060 | 8.89° C | 68% | 1019 hPa | 0 mm | - | 0 W/m² | - |
| 1788315759 | 9.44° C | 66% | 1019 hPa | 0 mm | - | 0 W/m² | - |
| 1788315460 | 9.44° C | 63% | 1019 hPa | 0 mm | - | 0 W/m² | - |
| 1788315159 | 9.44° C | 63% | 1019 hPa | 0 mm | - | 0 W/m² | - |
| 1788314860 | 9.44° C | 64% | 1019 hPa | 0 mm | - | 0 W/m² | - |
| 1788314561 | 10° C | 63% | 1019 hPa | 0 mm | - | 0 W/m² | - |
| 1788314261 | 10.56° C | 62% | 1019 hPa | 0 mm | - | 0 W/m² | - |
| 1788313960 | 10.56° C | 62% | 1019 hPa | 0 mm | - | 0 W/m² | - |
| 1788313660 | 10° C | 58% | 1019 hPa | 0 mm | - | 0 W/m² | - |
| 1788313360 | 9.44° C | 60% | 1019 hPa | 0 mm | - | 0 W/m² | - |
* Rain latest hour (hover to see other rain measurements)
** Current wind speed in m/s (hover to see current wind gust speed)